HISTORICAL SENSOR DATA

Sensor Data Report

DB LIVE
CURRENT TIME--:--:--
DEVICE NETWORK Gateway Status
13 ESP · realtime ~1s · history 60s
Weather WS-MOD-01
OFFLINE
Actuator ACT-MOD-01
OFFLINE
Mainboard L3 MB-L3-01
OFFLINE
Mainboard L5 MB-L5-01
OFFLINE
Remote AC AC-REMOTE-01
OFFLINE
PZEM L3-01 PWR-L3-01
OFFLINE
PZEM L3-02 PWR-L3-02
OFFLINE
PZEM L3-03 PWR-L3-03
OFFLINE
PZEM L3-04 PWR-L3-04
OFFLINE
PZEM L5-01 PWR-L5-01
OFFLINE
PZEM L5-02 PWR-L5-02
OFFLINE
PZEM L5-03 PWR-L5-03
OFFLINE
PZEM L5-04 PWR-L5-04
OFFLINE
REPORT FILTER

Periode & Sensor

DATABASE HISTORY
RESET
QUICK RANGE Hari ini 7 hari 30 hari
PERIODE28 Aug 2026sampai 03 Sep 2026
TOTAL DATA40,294sensor readings
MINIMUM-0.50sesuai filter
AVERAGE56.76sesuai filter
MAXIMUM998.00sesuai filter
REPORT RESULT

Data Sensor

28/08/2026 — 03/09/2026 EXPORT CSV
NOTANGGALWAKTUDEVICECHANNELSENSORVALUEUNIT
9201 02/09/2026 15:37:36 WS-MOD-01Weather Station Module WS-WIND Kecepatan Angin 0.04 m/s
9202 02/09/2026 15:37:36 WS-MOD-01Weather Station Module WS-DIR Arah Angin 309.80 °
9203 02/09/2026 15:37:36 WS-MOD-01Weather Station Module WS-PRES Tekanan Udara 998.00 hPa
9204 02/09/2026 15:37:36 WS-MOD-01Weather Station Module WS-TEMP Suhu Udara 30.20 °C
9205 02/09/2026 15:37:31 WS-MOD-01Weather Station Module WS-WIND Kecepatan Angin 0.02 m/s
9206 02/09/2026 15:37:31 WS-MOD-01Weather Station Module WS-DIR Arah Angin 310.10 °
9207 02/09/2026 15:37:31 WS-MOD-01Weather Station Module WS-PRES Tekanan Udara 998.00 hPa
9208 02/09/2026 15:37:31 WS-MOD-01Weather Station Module WS-TEMP Suhu Udara 30.20 °C
9209 02/09/2026 15:37:31 WS-MOD-01Weather Station Module WS-RH Kelembapan Udara 62.70 %RH
9210 02/09/2026 15:37:26 WS-MOD-01Weather Station Module WS-PRES Tekanan Udara 998.00 hPa
9211 02/09/2026 15:37:26 WS-MOD-01Weather Station Module WS-TEMP Suhu Udara 30.20 °C
9212 02/09/2026 15:37:26 WS-MOD-01Weather Station Module WS-RH Kelembapan Udara 62.60 %RH
9213 02/09/2026 15:37:26 WS-MOD-01Weather Station Module WS-WIND Kecepatan Angin 0.01 m/s
9214 02/09/2026 15:37:26 WS-MOD-01Weather Station Module WS-DIR Arah Angin 310.30 °
9215 02/09/2026 15:37:21 WS-MOD-01Weather Station Module WS-TEMP Suhu Udara 30.20 °C
9216 02/09/2026 15:37:21 WS-MOD-01Weather Station Module WS-RH Kelembapan Udara 62.60 %RH
9217 02/09/2026 15:37:21 WS-MOD-01Weather Station Module WS-WIND Kecepatan Angin 0.02 m/s
9218 02/09/2026 15:37:21 WS-MOD-01Weather Station Module WS-DIR Arah Angin 309.60 °
9219 02/09/2026 15:37:21 WS-MOD-01Weather Station Module WS-PRES Tekanan Udara 998.00 hPa
9220 02/09/2026 15:37:11 WS-MOD-01Weather Station Module WS-RH Kelembapan Udara 62.90 %RH
9221 02/09/2026 15:37:11 WS-MOD-01Weather Station Module WS-WIND Kecepatan Angin 0.02 m/s
9222 02/09/2026 15:37:11 WS-MOD-01Weather Station Module WS-DIR Arah Angin 309.90 °
9223 02/09/2026 15:37:11 WS-MOD-01Weather Station Module WS-PRES Tekanan Udara 998.00 hPa
9224 02/09/2026 15:37:11 WS-MOD-01Weather Station Module WS-TEMP Suhu Udara 30.20 °C
9225 02/09/2026 15:37:06 WS-MOD-01Weather Station Module WS-RH Kelembapan Udara 62.80 %RH
9226 02/09/2026 15:37:06 WS-MOD-01Weather Station Module WS-WIND Kecepatan Angin 0.02 m/s
9227 02/09/2026 15:37:06 WS-MOD-01Weather Station Module WS-DIR Arah Angin 309.60 °
9228 02/09/2026 15:37:06 WS-MOD-01Weather Station Module WS-PRES Tekanan Udara 998.00 hPa
9229 02/09/2026 15:37:06 WS-MOD-01Weather Station Module WS-TEMP Suhu Udara 30.20 °C
9230 02/09/2026 15:37:01 WS-MOD-01Weather Station Module WS-WIND Kecepatan Angin 0.02 m/s
9231 02/09/2026 15:37:01 WS-MOD-01Weather Station Module WS-DIR Arah Angin 310.00 °
9232 02/09/2026 15:37:01 WS-MOD-01Weather Station Module WS-PRES Tekanan Udara 998.00 hPa
9233 02/09/2026 15:37:01 WS-MOD-01Weather Station Module WS-TEMP Suhu Udara 30.20 °C
9234 02/09/2026 15:37:01 WS-MOD-01Weather Station Module WS-RH Kelembapan Udara 62.90 %RH
9235 02/09/2026 15:36:56 WS-MOD-01Weather Station Module WS-PRES Tekanan Udara 998.00 hPa
9236 02/09/2026 15:36:56 WS-MOD-01Weather Station Module WS-TEMP Suhu Udara 30.20 °C
9237 02/09/2026 15:36:56 WS-MOD-01Weather Station Module WS-RH Kelembapan Udara 62.90 %RH
9238 02/09/2026 15:36:56 WS-MOD-01Weather Station Module WS-WIND Kecepatan Angin 0.02 m/s
9239 02/09/2026 15:36:56 WS-MOD-01Weather Station Module WS-DIR Arah Angin 310.00 °
9240 02/09/2026 15:36:51 WS-MOD-01Weather Station Module WS-TEMP Suhu Udara 30.20 °C
9241 02/09/2026 15:36:51 WS-MOD-01Weather Station Module WS-RH Kelembapan Udara 63.00 %RH
9242 02/09/2026 15:36:51 WS-MOD-01Weather Station Module WS-WIND Kecepatan Angin 0.03 m/s
9243 02/09/2026 15:36:51 WS-MOD-01Weather Station Module WS-DIR Arah Angin 309.90 °
9244 02/09/2026 15:36:51 WS-MOD-01Weather Station Module WS-PRES Tekanan Udara 998.00 hPa
9245 02/09/2026 15:36:46 WS-MOD-01Weather Station Module WS-RH Kelembapan Udara 63.00 %RH
9246 02/09/2026 15:36:46 WS-MOD-01Weather Station Module WS-WIND Kecepatan Angin 0.03 m/s
9247 02/09/2026 15:36:46 WS-MOD-01Weather Station Module WS-DIR Arah Angin 310.30 °
9248 02/09/2026 15:36:46 WS-MOD-01Weather Station Module WS-PRES Tekanan Udara 998.00 hPa
9249 02/09/2026 15:36:46 WS-MOD-01Weather Station Module WS-TEMP Suhu Udara 30.20 °C
9250 02/09/2026 15:36:41 WS-MOD-01Weather Station Module WS-RH Kelembapan Udara 62.90 %RH
9251 02/09/2026 15:36:41 WS-MOD-01Weather Station Module WS-WIND Kecepatan Angin 0.02 m/s
9252 02/09/2026 15:36:41 WS-MOD-01Weather Station Module WS-DIR Arah Angin 310.00 °
9253 02/09/2026 15:36:41 WS-MOD-01Weather Station Module WS-PRES Tekanan Udara 998.00 hPa
9254 02/09/2026 15:36:41 WS-MOD-01Weather Station Module WS-TEMP Suhu Udara 30.20 °C
9255 02/09/2026 15:36:36 WS-MOD-01Weather Station Module WS-DIR Arah Angin 310.00 °
9256 02/09/2026 15:36:36 WS-MOD-01Weather Station Module WS-PRES Tekanan Udara 998.00 hPa
9257 02/09/2026 15:36:36 WS-MOD-01Weather Station Module WS-TEMP Suhu Udara 30.20 °C
9258 02/09/2026 15:36:36 WS-MOD-01Weather Station Module WS-RH Kelembapan Udara 62.90 %RH
9259 02/09/2026 15:36:36 WS-MOD-01Weather Station Module WS-WIND Kecepatan Angin 0.02 m/s
9260 02/09/2026 15:36:31 WS-MOD-01Weather Station Module WS-PRES Tekanan Udara 998.00 hPa
9261 02/09/2026 15:36:31 WS-MOD-01Weather Station Module WS-TEMP Suhu Udara 30.20 °C
9262 02/09/2026 15:36:31 WS-MOD-01Weather Station Module WS-RH Kelembapan Udara 62.80 %RH
9263 02/09/2026 15:36:31 WS-MOD-01Weather Station Module WS-WIND Kecepatan Angin 0.02 m/s
9264 02/09/2026 15:36:30 WS-MOD-01Weather Station Module WS-RH Kelembapan Udara 62.60 %RH
9265 02/09/2026 15:36:30 WS-MOD-01Weather Station Module WS-WIND Kecepatan Angin 0.02 m/s
9266 02/09/2026 15:36:30 WS-MOD-01Weather Station Module WS-DIR Arah Angin 309.90 °
9267 02/09/2026 15:36:30 WS-MOD-01Weather Station Module WS-PRES Tekanan Udara 998.00 hPa
9268 02/09/2026 15:36:30 WS-MOD-01Weather Station Module WS-TEMP Suhu Udara 30.20 °C
9269 02/09/2026 15:36:29 WS-MOD-01Weather Station Module WS-RH Kelembapan Udara 62.80 %RH
9270 02/09/2026 15:36:29 WS-MOD-01Weather Station Module WS-WIND Kecepatan Angin 0.02 m/s
9271 02/09/2026 15:36:29 WS-MOD-01Weather Station Module WS-DIR Arah Angin 310.00 °
9272 02/09/2026 15:36:29 WS-MOD-01Weather Station Module WS-PRES Tekanan Udara 998.00 hPa
9273 02/09/2026 15:36:29 WS-MOD-01Weather Station Module WS-TEMP Suhu Udara 30.20 °C
9274 02/09/2026 15:36:16 WS-MOD-01Weather Station Module WS-WIND Kecepatan Angin 0.03 m/s
9275 02/09/2026 15:36:16 WS-MOD-01Weather Station Module WS-DIR Arah Angin 309.90 °
9276 02/09/2026 15:36:16 WS-MOD-01Weather Station Module WS-PRES Tekanan Udara 998.00 hPa
9277 02/09/2026 15:36:16 WS-MOD-01Weather Station Module WS-TEMP Suhu Udara 30.10 °C
9278 02/09/2026 15:36:16 WS-MOD-01Weather Station Module WS-RH Kelembapan Udara 62.60 %RH
9279 02/09/2026 15:36:11 WS-MOD-01Weather Station Module WS-DIR Arah Angin 309.90 °
9280 02/09/2026 15:36:11 WS-MOD-01Weather Station Module WS-PRES Tekanan Udara 998.00 hPa
9281 02/09/2026 15:36:11 WS-MOD-01Weather Station Module WS-TEMP Suhu Udara 30.20 °C
9282 02/09/2026 15:36:11 WS-MOD-01Weather Station Module WS-RH Kelembapan Udara 62.80 %RH
9283 02/09/2026 15:36:11 WS-MOD-01Weather Station Module WS-WIND Kecepatan Angin 0.03 m/s
9284 02/09/2026 15:36:06 WS-MOD-01Weather Station Module WS-TEMP Suhu Udara 30.20 °C
9285 02/09/2026 15:36:06 WS-MOD-01Weather Station Module WS-RH Kelembapan Udara 63.10 %RH
9286 02/09/2026 15:36:06 WS-MOD-01Weather Station Module WS-WIND Kecepatan Angin 0.02 m/s
9287 02/09/2026 15:36:06 WS-MOD-01Weather Station Module WS-DIR Arah Angin 307.80 °
9288 02/09/2026 15:36:06 WS-MOD-01Weather Station Module WS-PRES Tekanan Udara 998.00 hPa
9289 02/09/2026 15:36:01 WS-MOD-01Weather Station Module WS-RH Kelembapan Udara 63.10 %RH
9290 02/09/2026 15:36:01 WS-MOD-01Weather Station Module WS-WIND Kecepatan Angin 0.02 m/s
9291 02/09/2026 15:36:01 WS-MOD-01Weather Station Module WS-DIR Arah Angin 307.60 °
9292 02/09/2026 15:36:01 WS-MOD-01Weather Station Module WS-PRES Tekanan Udara 998.00 hPa
9293 02/09/2026 15:36:01 WS-MOD-01Weather Station Module WS-TEMP Suhu Udara 30.20 °C
9294 02/09/2026 15:35:56 WS-MOD-01Weather Station Module WS-RH Kelembapan Udara 63.10 %RH
9295 02/09/2026 15:35:56 WS-MOD-01Weather Station Module WS-WIND Kecepatan Angin 0.02 m/s
9296 02/09/2026 15:35:56 WS-MOD-01Weather Station Module WS-DIR Arah Angin 307.60 °
9297 02/09/2026 15:35:56 WS-MOD-01Weather Station Module WS-PRES Tekanan Udara 998.00 hPa
9298 02/09/2026 15:35:56 WS-MOD-01Weather Station Module WS-TEMP Suhu Udara 30.10 °C
9299 02/09/2026 15:35:51 WS-MOD-01Weather Station Module WS-DIR Arah Angin 307.60 °
9300 02/09/2026 15:35:51 WS-MOD-01Weather Station Module WS-PRES Tekanan Udara 998.00 hPa
Menampilkan maksimal 100 data per halaman